1512345600.26,26680,3.56,72712.5,-14.23,-15.29,-15.57,0,*67
1512345601.51,26681,3.56,72714.8,-14.23,-15.43,-15.53,0,*6E
1512345602.76,26682,3.56,72714.0,-14.25,-15.53,-15.53,0,*6A
1512345604.02,26683,3.56,72712.8,-14.23,-15.43,-15.53,0,*6C
1512345605.3,26684,3.56,72712.8,-14.25,-15.43,-15.53,0,*6D
1512345606.55,26685,3.56,72712.5,-14.23,-15.43,-15.53,0,*6A
1512345607.83,26686,3.56,72712.0,-14.23,-15.43,-15.57,0,*6D
1512345609.08,26687,3.56,72714.8,-14.23,-15.43,-15.53,0,*68
1512345610.3,26688,3.56,72712.8,-14.23,-15.53,-15.67,0,*61
1512345611.6,26689,3.56,72712.0,-14.25,-15.57,-15.57,0,*61
1512345612.84,26690,3.56,72716.5,-14.23,-15.43,-15.67,0,*69
1512345614.06,26691,3.56,72708.0,-14.23,-15.53,-15.67,0,*69
1512345615.31,26692,3.56,72710.5,-14.23,-15.53,-15.57,0,*69
1512345616.56,26693,3.56,72708.8,-14.25,-15.53,-15.67,0,*6D
1512345617.81,26694,3.56,72708.8,-14.23,-15.43,-15.53,0,*6A
1512345619.03,26695,3.56,72710.8,-14.23,-15.53,-15.67,0,*6D
1512345620.31,26696,3.56,72712.5,-14.21,-15.39,-15.63,0,*64
1512345621.55,26697,3.56,72710.8,-14.23,-15.57,-15.67,0,*6B
1512345622.8,26698,3.56,72710.0,-14.21,-15.49,-15.63,0,*6D
1512345624.05,26699,3.56,72714.3,-14.21,-15.53,-15.67,0,*63
1512345625.3,26700,3.56,72710.8,-14.21,-15.53,-15.63,0,*66
1512345626.56,26701,3.56,72710.3,-14.21,-15.53,-15.53,0,*64
1512345627.81,26702,3.56,72714.0,-14.21,-15.63,-15.63,0,*67
1512345629.05,26703,3.56,72710.8,-14.23,-15.57,-15.67,0,*67
1512345630.29,26704,3.56,72714.8,-14.21,-15.63,-15.67,0,*65
1512345631.54,26705,3.56,72712.5,-14.17,-15.63,-15.67,0,*61
1512345632.78,26706,3.56,72710.3,-14.17,-15.67,-15.67,0,*66
1512345634.03,26707,3.56,72706.0,-14.21,-15.63,-15.75,0,*65
1512345635.28,26708,3.56,72710.0,-14.21,-15.63,-15.67,0,*69
1512345636.53,26709,3.56,72712.8,-14.21,-15.67,-15.75,0,*6F
1512345637.79,26710,3.56,72710.8,-14.21,-15.75,-15.75,0,*64
1512345639.04,26711,3.56,72712.0,-14.21,-15.67,-15.75,0,*66
1512345640.28,26712,3.56,72712.5,-14.21,-15.67,-15.67,0,*66
1512345641.54,26713,3.56,72712.3,-14.21,-15.67,-15.75,0,*64
1512345642.79,26714,3.56,72714.0,-14.17,-15.75,-15.75,0,*65
1512345644.04,26715,3.56,72712.8,-14.17,-15.63,-15.75,0,*63
1512345645.29,26716,3.56,72714.8,-14.17,-15.67,-15.75,0,*64
1512345646.53,26717,3.56,72714.3,-14.17,-15.67,-15.75,0,*65
1512345647.78,26718,3.56,72712.3,-14.21,-15.67,-15.67,0,*6C
1512345649.03,26719,3.56,72712.3,-14.17,-15.67,-15.75,0,*6B
1512345650.27,26720,3.56,72712.5,-14.21,-15.67,-15.67,0,*67
1512345651.53,26721,3.56,72710.3,-14.21,-15.75,-15.75,0,*66
1512345652.77,26722,3.56,72718.0,-14.17,-15.63,-15.67,0,*64
1512345654.02,26723,3.56,72718.5,-14.21,-15.67,-15.67,0,*64
1512345655.27,26724,3.56,72712.3,-14.21,-15.75,-15.75,0,*63
1512345656.52,26725,3.56,72714.5,-14.17,-15.75,-15.75,0,*67
1512345657.78,26726,3.56,72714.3,-14.17,-15.75,-15.75,0,*64
1512345659.02,26727,3.56,72714.5,-14.17,-15.67,-15.75,0,*66
1512345660.3,26728,3.56,72714.8,-14.21,-15.67,-15.81,0,*67
1512345661.55,26729,3.56,72714.3,-14.21,-15.75,-15.67,0,*6D
1512345662.8,26730,3.56,72712.5,-14.17,-15.67,-15.75,0,*60
1512345664.08,26731,3.56,72716.5,-14.21,-15.75,-15.89,0,*64
1512345665.33,26732,3.56,72716.0,-14.17,-15.75,-15.75,0,*61
1512345666.61,26733,3.56,72718.8,-14.17,-15.75,-15.81,0,*6B
1512345667.88,26734,3.56,72716.0,-14.17,-15.81,-15.75,0,*6C
1512345669.16,26735,3.56,72716.5,-14.17,-15.75,-15.81,0,*6D
1512345670.44,26736,3.56,72716.3,-14.17,-15.75,-15.81,0,*6E
1512345671.72,26737,3.56,72716.5,-14.21,-15.75,-15.89,0,*62
1512345673.02,26738,3.56,72716.8,-14.17,-15.89,-15.89,0,*6B
1512345674.31,26739,3.56,72718.5,-14.17,-15.89,-15.89,0,*6A
1512345675.62,26740,3.56,72716.5,-14.21,-15.81,-15.81,0,*61
1512345676.89,26741,3.56,72718.3,-14.21,-15.81,-15.75,0,*6B
1512345678.18,26742,3.56,72714.8,-14.21,-15.75,-15.81,0,*68
1512345679.48,26743,3.56,72718.5,-14.21,-15.81,-15.81,0,*62
1512345680.75,26744,3.56,72718.3,-14.17,-15.81,-15.75,0,*6B
1512345682.05,26745,3.56,72720.8,-14.17,-15.89,-15.81,0,*69
1512345683.35,26746,3.56,72722.0,-14.17,-15.81,-15.81,0,*62
1512345684.62,26747,3.56,72718.5,-14.17,-15.81,-15.75,0,*68
1512345685.9,26748,3.56,72716.5,-14.17,-15.89,-15.75,0,*6F
1512345687.18,26749,3.56,72718.8,-14.21,-15.89,-15.75,0,*6B
1512345688.45,26750,3.56,72718.3,-14.17,-15.81,-15.75,0,*6E
1512345689.75,26751,3.56,72716.0,-14.17,-15.89,-15.81,0,*6C
1512345691.03,26752,3.56,72718.3,-14.21,-15.89,-15.75,0,*61
1512345692.26,26753,3.56,72722.8,-14.15,-15.75,-15.71,0,*60
1512345693.54,26754,3.56,72718.5,-14.21,-15.89,-15.75,0,*67
1512345694.82,26755,3.56,72718.5,-14.21,-15.89,-15.75,0,*66
1512345696.07,26756,3.56,72718.3,-14.21,-15.75,-15.75,0,*66
1512345697.35,26757,3.56,72718.3,-14.17,-15.81,-15.75,0,*69
1512345698.61,26758,3.56,72718.0,-14.17,-15.89,-15.67,0,*6D
1512345699.87,26759,3.56,72718.8,-14.21,-15.75,-15.75,0,*69
1512345701.14,26760,3.56,72718.5,-14.17,-15.81,-15.67,0,*6E
1512345702.41,26761,3.56,72716.3,-14.17,-15.81,-15.75,0,*6C
1512345703.66,26762,3.56,72716.0,-14.17,-15.75,-15.53,0,*60
1512345704.91,26763,3.56,72716.0,-14.17,-15.75,-15.63,0,*62
1512345706.17,26764,3.56,72716.8,-14.21,-15.75,-15.53,0,*63
1512345707.4,26765,3.56,72718.8,-14.15,-15.75,-15.71,0,*65
1512345708.62,26766,3.56,72716.3,-14.15,-15.75,-15.71,0,*66
1512345709.89,26767,3.56,72722.8,-14.21,-15.81,-15.67,0,*6C
1512345711.12,26768,3.56,72720.8,-14.15,-15.75,-15.71,0,*68
1512345712.37,26769,3.56,72722.5,-14.13,-15.75,-15.71,0,*6F
1512345713.64,26770,3.56,72718.8,-14.17,-15.89,-15.67,0,*67
1512345714.91,26771,3.56,72716.5,-14.17,-15.89,-15.75,0,*65
1512345716.19,26772,3.56,72718.3,-14.17,-15.89,-15.75,0,*66
1512345717.48,26773,3.56,72718.3,-14.17,-15.89,-15.89,0,*64
1512345718.75,26774,3.56,72716.3,-14.17,-15.89,-15.67,0,*63
1512345720.06,26775,3.56,72716.5,-14.17,-15.89,-15.81,0,*6A
1512345721.3,26776,3.56,72716.5,-14.15,-15.85,-15.71,0,*68
1512345722.55,26777,3.56,72716.0,-14.15,-15.85,-15.71,0,*69
1512345723.78,26778,3.56,72718.5,-14.15,-15.75,-15.75,0,*6D
1512345725.02,26779,3.56,72718.5,-14.15,-15.85,-15.63,0,*64
1512345726.33,26780,3.56,72714.0,-14.17,-15.89,-15.81,0,*60
1512345727.63,26781,3.56,72718.0,-14.17,-15.89,-15.81,0,*61
1512345728.85,26782,3.56,72716.8,-14.15,-15.75,-15.71,0,*6C
1512345730.1,26783,3.56,72716.3,-14.15,-15.85,-15.63,0,*61
1512345731.34,26784,3.56,72716.5,-14.15,-15.85,-15.63,0,*66
1512345732.59,26785,3.56,72718.8,-14.13,-15.75,-15.71,0,*6D
1512345733.84,26786,3.56,72716.0,-14.15,-15.85,-15.71,0,*67
1512345735.09,26787,3.56,72718.3,-14.13,-15.75,-15.63,0,*6C
1512345736.31,26788,3.56,72712.5,-14.15,-15.75,-15.71,0,*66
1512345737.56,26789,3.56,72712.5,-14.15,-15.85,-15.71,0,*68
1512345738.81,26790,3.56,72718.5,-14.13,-15.75,-15.71,0,*69
1512345740.06,26791,3.56,72714.0,-14.15,-15.85,-15.71,0,*61
1512345741.28,26792,3.56,72714.5,-14.15,-15.75,-15.71,0,*6D
1512345742.53,26793,3.56,72712.5,-14.15,-15.85,-15.63,0,*60
1512345743.77,26794,3.56,72712.3,-14.15,-15.85,-15.63,0,*67
1512345745.0,26795,3.56,72710.8,-14.15,-15.75,-15.63,0,*69
1512345746.27,26796,3.56,72710.8,-14.13,-15.85,-15.63,0,*63
1512345747.49,26797,3.56,72710.0,-14.15,-15.75,-15.63,0,*6B
1512345748.71,26798,3.56,72710.8,-14.15,-15.75,-15.71,0,*67
1512345749.94,26799,3.56,72710.3,-14.15,-15.75,-15.71,0,*66
1512345751.18,26800,3.56,72710.8,-14.15,-15.85,-15.63,0,*65
1512345752.43,26801,3.56,72712.5,-14.15,-15.85,-15.71,0,*67
1512345753.68,26802,3.56,72712.5,-14.15,-15.85,-15.71,0,*64
1512345754.95,26803,3.56,72712.0,-14.13,-15.85,-15.75,0,*67
1512345756.17,26804,3.56,72710.0,-14.15,-15.71,-15.63,0,*6A
1512345757.42,26805,3.56,72714.0,-14.15,-15.85,-15.63,0,*60
1512345758.67,26806,3.56,72714.5,-14.15,-15.85,-15.71,0,*60
1512345759.89,26807,3.56,72716.0,-14.15,-15.75,-15.71,0,*6E
1512345761.16,26808,3.56,72716.3,-14.13,-15.75,-15.57,0,*63
1512345762.42,26809,3.56,72712.0,-14.13,-15.71,-15.49,0,*69
1512345763.66,26810,3.56,72708.5,-14.15,-15.63,-15.57,0,*6B
1512345764.93,26811,3.56,72712.3,-14.13,-15.63,-15.57,0,*6C
1512345766.18,26812,3.56,72714.8,-14.15,-15.63,-15.57,0,*69
1512345767.42,26813,3.56,72718.3,-14.15,-15.63,-15.57,0,*68
1512345768.67,26814,3.56,72714.3,-14.15,-15.63,-15.57,0,*6F
1512345769.92,26815,3.56,72712.5,-14.13,-15.63,-15.49,0,*67
1512345771.15,26816,3.56,72716.0,-14.15,-15.63,-15.49,0,*62
1512345772.42,26817,3.56,72714.8,-14.13,-15.63,-15.57,0,*6A
1512345773.67,26818,3.56,72714.0,-14.13,-15.63,-15.49,0,*6A
1512345774.92,26819,3.56,72712.3,-14.15,-15.71,-15.57,0,*61
1512345776.17,26820,3.56,72712.5,-14.13,-15.71,-15.49,0,*62
1512345777.41,26821,3.56,72712.5,-14.13,-15.71,-15.63,0,*6B
1512345778.7,26822,3.56,72714.8,-14.13,-15.57,-15.57,0,*6B
1512345779.97,26823,3.56,72712.0,-14.13,-15.63,-15.57,0,*6D
1512345781.22,26824,3.56,72714.0,-14.15,-15.71,-15.57,0,*6F
1512345782.49,26825,3.56,72710.3,-14.13,-15.71,-15.57,0,*68
1512345783.72,26826,3.56,72708.3,-14.15,-15.63,-15.49,0,*61
1512345784.99,26827,3.56,72710.3,-14.13,-15.63,-15.57,0,*69
1512345786.21,26828,3.56,72708.5,-14.15,-15.63,-15.63,0,*67
1512345787.46,26829,3.56,72712.3,-14.13,-15.63,-15.49,0,*68
1512345788.73,26830,3.56,72708.8,-14.13,-15.63,-15.57,0,*6F
1512345790.0,26831,3.56,72708.0,-14.13,-15.71,-15.57,0,*6D
1512345791.23,26832,3.56,72710.0,-14.15,-15.71,-15.49,0,*67
1512345792.52,26833,3.56,72714.5,-14.13,-15.57,-15.57,0,*6B
1512345793.77,26834,3.56,72712.0,-14.13,-15.63,-15.49,0,*64
1512345795.02,26835,3.56,72714.3,-14.13,-15.49,-15.49,0,*6D
1512345796.29,26836,3.56,72712.0,-14.13,-15.49,-15.57,0,*61
1512345797.56,26837,3.56,72712.5,-14.13,-15.49,-15.43,0,*65
1512345798.83,26838,3.56,72714.5,-14.13,-15.57,-15.49,0,*6F
1512345800.13,26839,3.56,72712.3,-14.13,-15.57,-15.57,0,*61
1512345801.38,26840,3.56,72710.0,-14.13,-15.63,-15.49,0,*67
1512345802.63,26841,3.56,72718.8,-14.13,-15.63,-15.49,0,*66
1512345803.9,26842,3.56,72714.8,-14.13,-15.63,-15.57,0,*6A
1512345805.15,26843,3.56,72718.0,-14.13,-15.49,-15.49,0,*6C
1512345806.45,26844,3.56,72714.0,-14.13,-15.57,-15.57,0,*6B
1512345807.71,26845,3.56,72712.3,-14.13,-15.49,-15.57,0,*65
1512345809.01,26846,3.56,72716.5,-14.13,-15.57,-15.57,0,*69
1512345810.28,26847,3.56,72712.0,-14.13,-15.57,-15.49,0,*67
1512345811.55,26848,3.56,72716.8,-14.13,-15.57,-15.49,0,*68
1512345812.83,26849,3.56,72712.8,-14.13,-15.57,-15.49,0,*69
1512345814.08,26850,3.56,72712.0,-14.13,-15.49,-15.49,0,*6E
1512345815.33,26851,3.56,72712.5,-14.13,-15.49,-15.49,0,*6F
1512345816.58,26852,3.56,72714.3,-14.13,-15.49,-15.49,0,*6C
1512345817.83,26853,3.56,72712.8,-14.13,-15.49,-15.49,0,*6D
1512345819.08,26854,3.56,72710.0,-14.13,-15.49,-15.49,0,*6A
1512345820.33,26855,3.56,72714.5,-14.11,-15.43,-15.53,0,*68
1512345821.6,26856,3.56,72714.3,-14.13,-15.49,-15.57,0,*67
1512345822.87,26857,3.56,72712.0,-14.11,-15.43,-15.39,0,*66
1512345824.14,26858,3.56,72710.5,-14.11,-15.43,-15.39,0,*69
1512345825.37,26859,3.56,72714.5,-14.11,-15.53,-15.53,0,*65
1512345826.61,26860,3.56,72712.0,-14.11,-15.53,-15.43,0,*6E
1512345827.89,26861,3.56,72712.8,-14.09,-15.43,-15.53,0,*66
1512345829.16,26862,3.56,72712.8,-14.09,-15.43,-15.53,0,*65
1512345830.43,26863,3.56,72708.0,-14.11,-15.43,-15.43,0,*6C
1512345831.68,26864,3.56,72714.8,-14.11,-15.53,-15.43,0,*6A
1512345832.9,26865,3.56,72714.8,-14.11,-15.53,-15.53,0,*6A
1512345834.12,26866,3.56,72716.5,-14.11,-15.53,-15.53,0,*69
1512345835.37,26867,3.56,72712.5,-14.11,-15.53,-15.39,0,*64
1512345836.67,26868,3.56,72708.5,-14.09,-15.43,-15.43,0,*6E
1512345837.92,26869,3.56,72708.3,-14.11,-15.53,-15.43,0,*67
1512345839.19,26870,3.56,72712.3,-14.11,-15.43,-15.43,0,*6E
1512345840.46,26871,3.56,72712.0,-14.11,-15.39,-15.43,0,*62
1512345841.73,26872,3.56,72712.5,-14.11,-15.39,-15.43,0,*61
1512345843.0,26873,3.56,72712.0,-14.11,-15.43,-15.43,0,*6D
1512345844.27,26874,3.56,72712.3,-14.11,-15.43,-15.43,0,*6A
1512345845.54,26875,3.56,72712.5,-14.11,-15.43,-15.43,0,*6B
1512345846.79,26876,3.56,72712.5,-14.11,-15.39,-15.53,0,*64
1512345848.03,26877,3.56,72712.8,-14.11,-15.53,-15.43,0,*68
1512345849.26,26878,3.56,72712.8,-14.11,-15.53,-15.53,0,*66
1512345850.53,26879,3.56,72718.0,-14.11,-15.43,-15.43,0,*67
1512345851.8,26880,3.56,72712.0,-14.11,-15.43,-15.43,0,*61
1512345853.02,26881,3.56,72714.3,-14.11,-15.53,-15.53,0,*60
1512345854.27,26882,3.56,72712.8,-14.11,-15.39,-15.53,0,*6F
1512345855.57,26883,3.56,72716.0,-14.09,-15.43,-15.43,0,*6B
1512345856.79,26884,3.56,72712.0,-14.11,-15.53,-15.53,0,*65
1512345858.09,26885,3.56,72712.3,-14.09,-15.43,-15.43,0,*6D
1512345859.36,26886,3.56,72718.5,-14.11,-15.39,-15.43,0,*6A
1512345860.63,26887,3.56,72714.3,-14.11,-15.43,-15.43,0,*66
1512345861.88,26888,3.56,72708.3,-14.11,-15.39,-15.29,0,*68
1512345863.18,26889,3.56,72712.8,-14.09,-15.39,-15.39,0,*61
1512345864.45,26890,3.56,72714.5,-14.11,-15.39,-15.39,0,*60
1512345865.72,26891,3.56,72712.5,-14.09,-15.29,-15.39,0,*69
1512345867.0,26892,3.56,72716.3,-14.09,-15.29,-15.43,0,*67
1512345868.3,26893,3.56,72712.3,-14.09,-15.39,-15.39,0,*6A
1512345869.57,26894,3.56,72708.0,-14.09,-15.29,-15.43,0,*61
1512345870.82,26895,3.56,72714.3,-14.11,-15.39,-15.53,0,*69
1512345872.09,26896,3.56,72714.5,-14.11,-15.39,-15.43,0,*6B
1512345873.34,26897,3.56,72714.8,-14.11,-15.29,-15.43,0,*6B
1512345874.61,26898,3.56,72714.3,-14.11,-15.39,-15.39,0,*68
1512345875.86,26899,3.56,72712.3,-14.09,-15.29,-15.29,0,*60
1512345877.16,26900,3.56,72712.8,-14.09,-15.39,-15.43,0,*6C
1512345878.43,26901,3.56,72714.3,-14.09,-15.29,-15.39,0,*61
1512345879.71,26902,3.56,72712.5,-14.09,-15.29,-15.43,0,*6F
1512345880.98,26903,3.56,72712.5,-14.11,-15.43,-15.43,0,*6B
1512345882.25,26904,3.56,72712.5,-14.09,-15.29,-15.43,0,*69
1512345883.55,26905,3.56,72718.5,-14.09,-15.43,-15.43,0,*64
1512345884.8,26906,3.56,72712.3,-14.09,-15.29,-15.29,0,*67
1512345886.05,26907,3.56,72712.8,-14.11,-15.29,-15.39,0,*6E
1512345887.33,26908,3.56,72712.8,-14.09,-15.29,-15.39,0,*68
1512345888.58,26909,3.56,72712.3,-14.09,-15.29,-15.29,0,*68
1512345889.88,26910,3.56,72712.0,-14.09,-15.39,-15.39,0,*60
1512345891.18,26911,3.56,72714.0,-14.09,-15.39,-15.39,0,*61
1512345892.48,26912,3.56,72708.8,-14.09,-15.39,-15.39,0,*62
1512345893.75,26913,3.56,72712.0,-14.09,-15.29,-15.39,0,*62
1512345895.0,26914,3.56,72710.5,-14.11,-15.29,-15.39,0,*6C
1512345896.28,26915,3.56,72714.0,-14.09,-15.29,-15.43,0,*69
1512345897.55,26916,3.56,72714.5,-14.09,-15.29,-15.43,0,*6A
1512345898.8,26917,3.56,72712.3,-14.09,-15.29,-15.53,0,*6A
1512345900.08,26918,3.56,72712.0,-14.09,-15.29,-15.39,0,*69
1512345901.35,26919,3.56,72714.8,-14.09,-15.25,-15.39,0,*64
1512345902.6,26920,3.56,72714.8,-14.09,-15.25,-15.29,0,*6F
1512345903.88,26921,3.56,72712.3,-14.09,-15.29,-15.39,0,*63
1512345905.18,26922,3.56,72716.8,-14.09,-15.39,-15.43,0,*6C
1512345906.45,26923,3.56,72714.0,-14.09,-15.29,-15.43,0,*6C
1512345907.72,26924,3.56,72708.8,-14.09,-15.29,-15.43,0,*6B
1512345908.99,26925,3.56,72714.0,-14.05,-15.25,-15.35,0,*6B
1512345910.29,26926,3.56,72710.8,-14.09,-15.39,-15.39,0,*65
1512345911.57,26927,3.56,72710.5,-14.09,-15.29,-15.43,0,*68
1512345912.85,26928,3.56,72716.0,-14.05,-15.21,-15.35,0,*62
1512345914.12,26929,3.56,72710.3,-14.05,-15.25,-15.35,0,*67
1512345915.39,26930,3.56,72714.5,-14.05,-15.25,-15.35,0,*6F
1512345916.66,26931,3.56,72708.5,-14.05,-15.25,-15.35,0,*6E
1512345917.96,26932,3.56,72714.3,-14.05,-15.35,-15.35,0,*6C
1512345919.23,26933,3.56,72712.3,-14.05,-15.25,-15.39,0,*60
1512345920.5,26934,3.56,72714.5,-14.05,-15.25,-15.35,0,*6B
1512345921.79,26935,3.56,72714.0,-14.05,-15.21,-15.35,0,*6E
1512345923.09,26936,3.56,72714.8,-14.09,-15.39,-15.39,0,*64
1512345924.36,26937,3.56,72708.0,-14.05,-15.25,-15.39,0,*64
1512345925.63,26938,3.56,72714.3,-14.05,-15.25,-15.35,0,*67
1512345926.9,26939,3.56,72710.8,-14.05,-15.25,-15.35,0,*66
1512345928.2,26940,3.56,72714.0,-14.05,-15.35,-15.35,0,*69
1512345929.49,26941,3.56,72712.3,-14.05,-15.35,-15.35,0,*68
1512345930.78,26942,3.56,72714.5,-14.05,-15.35,-15.35,0,*6B
1512345932.06,26943,3.56,72714.0,-14.05,-15.25,-15.39,0,*67
1512345933.33,26944,3.56,72712.8,-14.05,-15.25,-15.35,0,*6C
1512345934.63,26945,3.56,72712.5,-14.05,-15.35,-15.39,0,*60
1512345935.9,26946,3.56,72712.8,-14.05,-15.21,-15.49,0,*61
1512345937.15,26947,3.56,72710.3,-14.05,-15.25,-15.49,0,*64
1512345938.45,26948,3.56,72714.5,-14.05,-15.35,-15.39,0,*6D
1512345939.73,26949,3.56,72710.5,-14.05,-15.25,-15.39,0,*6D
1512345941.01,26950,3.56,72714.0,-14.05,-15.21,-15.35,0,*6D
1512345942.29,26951,3.56,72708.5,-14.05,-15.25,-15.39,0,*64
1512345943.56,26952,3.56,72712.0,-14.05,-15.35,-15.49,0,*61
1512345944.86,26953,3.56,72714.5,-14.05,-15.35,-15.39,0,*67
1512345946.12,26954,3.56,72712.8,-14.05,-15.25,-15.49,0,*66
1512345947.39,26955,3.56,72712.3,-14.05,-15.25,-15.35,0,*6C
1512345948.66,26956,3.56,72712.5,-14.05,-15.35,-15.49,0,*65
1512345949.96,26957,3.56,72714.0,-14.05,-15.35,-15.39,0,*63
1512345951.24,26958,3.56,72712.0,-14.05,-15.39,-15.49,0,*67
1512345952.51,26959,3.56,72712.3,-14.05,-15.39,-15.49,0,*66
1512345953.81,26960,3.56,72710.0,-14.05,-15.35,-15.39,0,*67
1512345955.11,26961,3.56,72710.0,-14.05,-15.35,-15.39,0,*66
1512345956.41,26962,3.56,72716.3,-14.05,-15.35,-15.39,0,*65
1512345957.69,26963,3.56,72712.3,-14.05,-15.25,-15.39,0,*65
1512345958.99,26964,3.56,72714.3,-14.05,-15.35,-15.39,0,*63
1512345960.24,26965,3.56,72712.8,-14.05,-15.25,-15.49,0,*64
1512345961.54,26966,3.56,72710.3,-14.05,-15.35,-15.39,0,*61
1512345962.82,26967,3.56,72712.0,-14.05,-15.39,-15.49,0,*6B
1512345964.09,26968,3.56,72714.0,-14.05,-15.49,-15.39,0,*64
1512345965.38,26969,3.56,72712.0,-14.05,-15.39,-15.35,0,*6E
1512345966.66,26970,3.56,72708.0,-14.05,-15.35,-15.49,0,*61
1512345967.93,26971,3.56,72708.8,-14.05,-15.49,-15.39,0,*6C
1512345969.18,26972,3.56,72710.5,-14.05,-15.49,-15.49,0,*68
1512345970.43,26973,3.56,72708.0,-14.05,-15.49,-15.53,0,*62
1512345971.71,26974,3.56,72710.8,-14.05,-15.39,-15.49,0,*69
1512345973.01,26975,3.56,72712.5,-14.05,-15.39,-15.39,0,*6F
1512345974.25,26976,3.56,72714.3,-14.03,-15.39,-15.49,0,*6D
1512345975.52,26977,3.56,72714.0,-14.05,-15.49,-15.39,0,*6A
1512345976.77,26978,3.56,72714.0,-14.05,-15.63,-15.53,0,*61
1512345978.02,26979,3.56,72714.8,-14.05,-15.53,-15.53,0,*63
1512345979.27,26980,3.56,72714.0,-14.05,-15.49,-15.49,0,*65
1512345980.53,26981,3.56,72714.0,-14.05,-15.53,-15.49,0,*6F
1512345981.77,26982,3.56,72716.3,-14.05,-15.53,-15.63,0,*64
1512345983.02,26983,3.56,72708.5,-14.05,-15.53,-15.53,0,*66
1512345984.3,26984,3.56,72710.8,-14.05,-15.63,-15.39,0,*6E
1512345985.54,26985,3.56,72716.0,-14.03,-15.39,-15.49,0,*61
1512345986.8,26986,3.56,72712.0,-14.05,-15.63,-15.49,0,*6B
1512345988.05,26987,3.56,72712.8,-14.05,-15.63,-15.49,0,*6A
1512345989.3,26988,3.56,72712.0,-14.05,-15.53,-15.53,0,*6D
1512345990.55,26989,3.56,72714.5,-14.05,-15.67,-15.49,0,*60
1512345991.8,26990,3.56,72712.8,-14.05,-15.63,-15.53,0,*67
1512345993.05,26991,3.56,72714.0,-14.05,-15.63,-15.53,0,*66
1512345994.29,26992,3.56,72712.0,-14.05,-15.67,-15.53,0,*61
1512345995.51,26993,3.56,72712.0,-14.03,-15.67,-15.53,0,*66
1512345996.75,26994,3.56,72712.5,-14.05,-15.67,-15.63,0,*64
1512345998.0,26995,3.56,72714.8,-14.05,-15.67,-15.53,0,*66
1512345999.25,26996,3.56,72712.3,-14.05,-15.63,-15.49,0,*6A
1512346000.5,26997,3.56,72710.5,-14.05,-15.67,-15.63,0,*67
1512346001.74,26998,3.56,72714.5,-14.05,-15.67,-15.63,0,*68
1512346002.98,26999,3.56,72712.3,-14.05,-15.63,-15.63,0,*6D
1512346004.23,27000,3.56,72710.3,-14.05,-15.63,-15.53,0,*66
1512346005.47,27001,3.56,72710.8,-14.05,-15.67,-15.63,0,*60
1512346006.72,27002,3.56,72714.0,-14.05,-15.75,-15.63,0,*60
1512346007.96,27003,3.56,72718.5,-14.05,-15.67,-15.63,0,*62
1512346009.21,27004,3.56,72712.0,-14.05,-15.67,-15.53,0,*66
1512346010.42,27005,3.56,72712.8,-14.03,-15.67,-15.63,0,*62
1512346011.67,27006,3.56,72712.5,-14.05,-15.75,-15.63,0,*64
1512346012.91,27007,3.56,72712.8,-14.05,-15.67,-15.63,0,*66
1512346014.16,27008,3.56,72710.8,-14.05,-15.75,-15.63,0,*6A
1512346015.4,27009,3.56,72712.5,-14.05,-15.75,-15.67,0,*6F
1512346016.61,27010,3.56,72716.3,-14.03,-15.75,-15.67,0,*61
1512346017.86,27011,3.56,72712.5,-14.05,-15.67,-15.53,0,*62
1512346019.1,27012,3.56,72714.0,-14.05,-15.67,-15.63,0,*62
1512346020.35,27013,3.56,72712.5,-14.05,-15.67,-15.53,0,*60
1512346021.59,27014,3.56,72714.5,-14.05,-15.75,-15.67,0,*63
1512346022.84,27015,3.56,72714.8,-14.05,-15.75,-15.63,0,*66
1512346024.09,27016,3.56,72716.0,-14.05,-15.75,-15.63,0,*65
1512346025.33,27017,3.56,72714.5,-14.05,-15.75,-15.63,0,*64
1512346026.58,27018,3.56,72716.8,-14.05,-15.75,-15.63,0,*6B
1512346027.8,27019,3.56,72712.3,-14.03,-15.75,-15.63,0,*6C
1512346029.04,27020,3.56,72714.3,-14.05,-15.75,-15.63,0,*60
1512346030.31,27021,3.56,72716.8,-14.05,-15.81,-15.75,0,*6D
1512346031.58,27022,3.56,72714.3,-14.05,-15.81,-15.63,0,*69
1512346032.84,27023,3.56,72714.3,-14.05,-15.81,-15.67,0,*6C
1512346034.11,27024,3.56,72716.3,-14.05,-15.81,-15.63,0,*6F
1512346035.35,27025,3.56,72712.0,-14.05,-15.67,-15.63,0,*66
1512346036.62,27026,3.56,72718.8,-14.05,-15.89,-15.63,0,*65
1512346037.89,27027,3.56,72714.5,-14.05,-15.81,-15.67,0,*68
1512346039.15,27028,3.56,72712.5,-14.05,-15.81,-15.67,0,*67
1512346040.42,27029,3.56,72714.8,-14.05,-15.81,-15.53,0,*61
1512346041.7,27030,3.56,72714.5,-14.05,-15.89,-15.53,0,*61
1512346042.97,27031,3.56,72714.8,-14.05,-15.89,-15.63,0,*63
1512346044.23,27032,3.56,72716.5,-14.05,-15.81,-15.63,0,*68
1512346045.5,27033,3.56,72716.8,-14.05,-15.81,-15.63,0,*69
1512346046.77,27034,3.56,72712.3,-14.05,-15.81,-15.63,0,*6E
1512346048.01,27035,3.56,72714.8,-14.03,-15.89,-15.63,0,*61
1512346049.27,27036,3.56,72714.8,-14.05,-15.89,-15.67,0,*60
1512346050.52,27037,3.56,72716.8,-14.05,-15.75,-15.63,0,*66
1512346051.76,27038,3.56,72716.3,-14.05,-15.75,-15.67,0,*6D
1512346052.99,27039,3.56,72716.0,-14.03,-15.81,-15.67,0,*61
1512346054.26,27040,3.56,72712.0,-14.05,-15.81,-15.67,0,*69
1512346055.52,27041,3.56,72714.8,-14.05,-15.81,-15.67,0,*68
1512346056.78,27042,3.56,72718.8,-14.05,-15.81,-15.67,0,*6B
1512346058.03,27043,3.56,72718.3,-14.05,-15.75,-15.63,0,*65
1512346059.29,27044,3.56,72718.3,-14.05,-15.81,-15.67,0,*6D
1512346060.56,27045,3.56,72718.3,-14.05,-15.81,-15.53,0,*6B
1512346061.83,27046,3.56,72716.5,-14.05,-15.81,-15.63,0,*6B
1512346063.06,27047,3.56,72716.3,-14.03,-15.81,-15.67,0,*68
1512346064.3,27048,3.56,72718.0,-14.03,-15.81,-15.67,0,*67
1512346065.53,27049,3.56,72716.8,-14.03,-15.81,-15.63,0,*62
1512346066.77,27050,3.56,72716.3,-14.03,-15.81,-15.53,0,*69
1512346068.04,27051,3.56,72716.8,-14.05,-15.89,-15.67,0,*61
1512346069.31,27052,3.56,72718.3,-14.05,-15.89,-15.67,0,*62
1512346070.57,27053,3.56,72718.5,-14.05,-15.81,-15.63,0,*6F
1512346071.81,27054,3.56,72716.5,-14.03,-15.89,-15.63,0,*66
1512346073.08,27055,3.56,72716.0,-14.05,-15.81,-15.67,0,*6D
1512346074.31,27056,3.56,72716.5,-14.03,-15.81,-15.67,0,*68
1512346075.51,27057,3.56,72716.0,-14.03,-15.99,-15.67,0,*60
1512346076.75,27058,3.56,72716.0,-14.03,-15.89,-15.75,0,*6D
1512346078.0,27059,3.56,72712.3,-14.05,-15.95,-15.75,0,*67
1512346079.24,27060,3.56,72712.0,-14.05,-15.95,-15.67,0,*6E
1512346080.51,27061,3.56,72716.5,-14.05,-15.89,-15.75,0,*61
1512346081.75,27062,3.56,72714.5,-14.03,-15.89,-15.75,0,*64
1512346083.02,27063,3.56,72716.0,-14.05,-15.89,-15.67,0,*60
1512346084.26,27064,3.56,72718.5,-14.05,-15.95,-15.67,0,*6A
1512346085.51,27065,3.56,72716.8,-14.05,-15.95,-15.75,0,*68
1512346086.75,27066,3.56,72716.5,-14.05,-15.99,-15.75,0,*67
1512346087.99,27067,3.56,72720.0,-14.03,-15.89,-15.67,0,*62
1512346089.25,27068,3.56,72718.5,-14.05,-15.81,-15.67,0,*63
1512346090.48,27069,3.56,72714.8,-14.03,-15.81,-15.63,0,*60
1512346091.75,27070,3.56,72718.3,-14.05,-15.89,-15.63,0,*66
1512346093.02,27071,3.56,72714.8,-14.05,-15.81,-15.67,0,*6B
1512346094.28,27072,3.56,72718.5,-14.05,-15.81,-15.67,0,*68
1512346095.54,27073,3.56,72716.0,-14.05,-15.81,-15.67,0,*69
1512346096.81,27074,3.56,72714.5,-14.05,-15.81,-15.63,0,*6A
1512346098.08,27075,3.56,72714.0,-14.05,-15.89,-15.63,0,*63
1512346099.35,27076,3.56,72710.8,-14.05,-15.89,-15.53,0,*63
1512346100.62,27077,3.56,72712.8,-14.05,-15.89,-15.67,0,*65
1512346101.89,27078,3.56,72712.0,-14.05,-15.81,-15.63,0,*66
1512346103.16,27079,3.56,72716.5,-14.05,-15.89,-15.75,0,*68